Voltar ao catálogo

COSMOS 970 DEB

AtivoLEO
NORAD 64985·DEBRIS·🇷🇺 Russia

Lançado Dec 21, 1977 de Baikonur Cosmodrome

Loading…

Próximas Passagens (próximas 24 horas)

TLE

ObsoletoSource: Space-Track

Época: Sep 2, 2026, 08:05 UTC

1 64985U 77121CW  26245.33696906  .00000025  00000-0  14041-3 0  9991
2 64985  65.8517  92.9097 0101244 231.2022 304.6471 13.55881899127121

Acompanhe COSMOS 970 DEB em tempo real com AllMySat

Download on the App Store